Location: Brno
(49.2000°N, 16.6330°E)
Time: 01:18:40
(UTC+02:00)

Iridium 2 - Visible Passes

Search period start: 23 May 2017 00:00
Search period end: 02 June 2017 00:00
Orbit: 510 x 523 km, 85.5° (Epoch: 21 May)

Date Brightness Start Highest point End Pass type
(mag) Time Alt. Az. Time Alt. Az. Time Alt. Az.
23 May 5.5 00:30:48 10° NNW 00:33:46 22° W 00:34:46 20° WSW visible
23 May 5.1 22:40:31 10° NNE 22:43:46 26° ENE 22:45:12 21° ESE visible
24 May 5.2 00:15:54 10° NNW 00:19:08 26° W 00:20:13 23° WSW visible
24 May 5.3 22:26:00 10° NNE 22:28:59 21° ENE 22:30:39 16° ESE visible
25 May 5.0 00:01:02 10° NNW 00:04:27 32° W 00:05:41 26° WSW visible
25 May 5.6 22:11:31 10° NNE 22:14:11 18° ENE 22:16:07 13° ESE visible
25 May 4.6 23:46:12 10° NNW 23:49:47 40° W 23:51:09 28° SW visible
26 May 5.8 21:57:08 10° NE 21:59:22 15° ENE 22:01:34 10° ESE visible
26 May 4.3 23:31:23 10° NNW 23:35:05 50° W 23:36:37 30° SSW visible
27 May 5.9 21:42:55 10° NE 21:44:32 12° ENE 21:46:08 10° E visible
27 May 3.9 23:16:36 10° N 23:20:23 63° W 23:22:05 30° SSW visible
28 May 3.7 23:01:51 10° N 23:05:40 80° W 23:07:35 28° S visible
29 May 3.6 22:47:07 10° N 22:50:56 82° E 22:53:04 25° S visible
30 May 3.7 22:32:23 10° N 22:36:11 65° E 22:38:34 21° SSE visible
31 May 6.4 00:09:44 10° WNW 00:11:01 11° WNW 00:12:19 10° W visible
31 May 4.0 22:17:42 10° N 22:21:26 51° E 22:24:04 18° SSE visible
31 May 6.3 23:54:21 10° NW 23:56:23 14° W 23:58:25 10° WSW visible
01 Jun 4.3 22:03:02 10° N 22:06:40 41° E 22:09:35 14° SSE visible
01 Jun 6.1 23:39:14 10° NW 23:41:44 17° W 23:44:14 10° WSW visible
